This is the latest recevied weather packets stored in our database for station/object K3JSE-2. If no packets are shown the sender has not sent any weather packets the latest 10 day(s).
| Time | Temp. | Humidity | Pressure | Rain* | Wind** | Luminosity | Snow |
|---|---|---|---|---|---|---|---|
| 1778257618 | 16.67° C | 42% | 1012.9 hPa | 0 mm | - | - | - |
| 1778257353 | 16.67° C | 45% | 1012.9 hPa | 0 mm | - | - | - |
| 1778257083 | 16.11° C | 42% | 1013 hPa | 0 mm | - | - | - |
| 1778256818 | 16.11° C | 46% | 1013.3 hPa | 0 mm | - | - | - |
| 1778256552 | 15.56° C | 46% | 1013.3 hPa | 0 mm | - | - | - |
| 1778256263 | 15.56° C | 44% | 1013.6 hPa | 0 mm | - | - | - |
| 1778256013 | 15.56° C | 43% | 1013.7 hPa | 0 mm | - | - | - |
| 1778255748 | 15.56° C | 42% | 1013.6 hPa | 0 mm | - | - | - |
| 1778255453 | 15.56° C | 43% | 1013.7 hPa | 0 mm | - | - | - |
| 1778255190 | 15.56° C | 44% | 1013.7 hPa | 0 mm | - | - | - |
| 1778254913 | 15.56° C | 44% | 1013.8 hPa | 0 mm | - | - | - |
| 1778254633 | 15° C | 42% | 1013.8 hPa | 0 mm | - | - | - |
| 1778254368 | 15° C | 43% | 1013.8 hPa | 0 mm | - | - | - |
| 1778254113 | 15° C | 48% | 1013.9 hPa | 0 mm | - | - | - |
| 1778253873 | 15° C | 44% | 1013.9 hPa | 0 mm | - | - | - |
| 1778253623 | 14.44° C | 42% | 1014 hPa | 0 mm | - | - | - |
| 1778253323 | 14.44° C | 43% | 1014 hPa | 0 mm | - | - | - |
| 1778253068 | 14.44° C | 48% | 1014.1 hPa | 0 mm | - | - | - |
| 1778252808 | 13.89° C | 50% | 1014.2 hPa | 0 mm | - | - | - |
| 1778252553 | 13.33° C | 47% | 1014.2 hPa | 0 mm | - | - | - |
| 1778252274 | 13.33° C | 45% | 1014.3 hPa | 0 mm | - | - | - |
| 1778252033 | 13.33° C | 46% | 1014.3 hPa | 0 mm | - | - | - |
| 1778251753 | 13.33° C | 46% | 1014.3 hPa | 0 mm | - | - | - |
| 1778251488 | 13.89° C | 44% | 1014.4 hPa | 0 mm | - | - | - |
| 1778251223 | 13.89° C | 45% | 1014.3 hPa | 0 mm | - | - | - |
* Rain latest hour (hover to see other rain measurements)
** Current wind speed in m/s (hover to see current wind gust speed)